Sulphur, LA

1:29 AM CDT on May 26, 2017 (GMT -0500)
Sulphur

Weather History for KUXL - February, 2013

Change the Weather History Date:

Sunday, February 24, 2013

  Actual Average (KLCH) Record (KLCH)
Temperature  
Mean Temperature 58 °F -  
Max Temperature 69 °F 66 °F 84 °F (1906)
Min Temperature 46 °F 45 °F 21 °F (1914)
Degree Days  
Heating Degree Days 8    
Growing Degree Days 8 (Base 50)    
Moisture  
Dew Point 50 °F    
Average Humidity 75    
Maximum Humidity 100    
Minimum Humidity 49    
Precipitation  
Precipitation 0.02 in - - ()
Sea Level Pressure  
Sea Level Pressure 29.88 in    
Wind  
Wind Speed 7 mph (ENE)    
Max Wind Speed 10 mph    
Max Gust Speed -    
Visibility 10 miles    
Events Rain , Thunderstorm    
Averages and records for this station are not official NWS values.
T = Trace of Precipitation, MM = Missing Value Source: NWS Daily Summary

Daily Weather History Graph

Daily Weather History Graph

Search for Another Location

Airport or City:

Trip Planner

Search our weather history database for the weather conditions in past years. The results will help you decide how hot, cold, wet, or windy it might be!

Date:

Astronomy

Feb. 24, 2013 Rise Set
Actual Time 6:44 AM CST 6:09 PM CST
Civil Twilight 6:20 AM CST 6:33 PM CST
Nautical Twilight 5:52 AM CST 7:01 PM CST
Astronomical Twilight 5:24 AM CST 7:29 PM CST
Moon 5:20 PM CST (2/24) 5:40 AM CST (2/24)
Length of Visible Light 12h 12m
Length of Day
11h 24m
Waxing Gibbous, 99% of the Moon is Illuminated
Feb 24
Waxing Gibbous
Feb 25
Full
Mar 4
Last Quarter
Mar 11
New
Mar 19
First Quarter

Hourly Weather History & Observations

Time (CST) Temp. Windchill Dew Point Humidity Pressure Visibility Wind Dir Wind Speed Gust Speed Precip Events Conditions
12:15 AM 53.6 °F - 46.4 °F 77% 29.97 in 10.0 mi ENE 6.9 mph - N/A   Clear
12:35 AM 53.6 °F - 46.4 °F 77% 29.97 in 10.0 mi ENE 5.8 mph - N/A   Clear
12:55 AM 53.6 °F - 46.4 °F 77% 29.97 in 10.0 mi ENE 6.9 mph - N/A   Clear
1:15 AM 51.8 °F - 46.4 °F 82% 29.97 in 10.0 mi ENE 8.1 mph - N/A   Clear
1:35 AM 51.8 °F - 46.4 °F 82% 29.97 in 10.0 mi NE 5.8 mph - N/A   Clear
1:55 AM 51.8 °F - 46.4 °F 82% 29.96 in 10.0 mi NE 5.8 mph - N/A   Clear
2:15 AM 51.8 °F - 46.4 °F 82% 29.96 in 10.0 mi NE 5.8 mph - N/A   Clear
2:35 AM 51.8 °F - 44.6 °F 76% 29.95 in 10.0 mi NE 8.1 mph - N/A   Clear
2:55 AM 50.0 °F - 44.6 °F 82% 29.94 in 10.0 mi ENE 6.9 mph - N/A   Clear
3:15 AM 50.0 °F - 44.6 °F 82% 29.93 in 10.0 mi NE 6.9 mph - N/A   Clear
3:35 AM 50.0 °F - 44.6 °F 82% 29.93 in 10.0 mi ENE 8.1 mph - N/A   Clear
3:55 AM 50.0 °F - 44.6 °F 82% 29.92 in 10.0 mi ENE 6.9 mph - N/A   Clear
4:15 AM 50.0 °F - 44.6 °F 82% 29.91 in 10.0 mi ENE 6.9 mph - N/A   Clear
4:35 AM 50.0 °F - 44.6 °F 82% 29.91 in 10.0 mi ENE 6.9 mph - N/A   Clear
4:55 AM 50.0 °F - 42.8 °F 76% 29.91 in 10.0 mi ENE 5.8 mph - N/A   Clear
5:15 AM 50.0 °F - 44.6 °F 82% 29.92 in 10.0 mi ENE 6.9 mph - N/A   Clear
5:35 AM 48.2 °F - 42.8 °F 82% 29.92 in 10.0 mi ENE 5.8 mph - N/A   Clear
5:55 AM 48.2 °F - 42.8 °F 82% 29.93 in 10.0 mi ENE 4.6 mph - N/A   Clear
6:15 AM 48.2 °F - 44.6 °F 87% 29.94 in 10.0 mi ENE 5.8 mph - N/A   Clear
6:35 AM 46.4 °F 44.3 °F 44.6 °F 93% 29.94 in 10.0 mi NE 4.6 mph - N/A   Clear
6:55 AM 46.4 °F 43.5 °F 44.6 °F 93% 29.95 in 10.0 mi NE 5.8 mph - N/A   Clear
7:15 AM 48.2 °F - 44.6 °F 87% 29.96 in 10.0 mi NE 5.8 mph - N/A   Clear
7:35 AM 50.0 °F - 44.6 °F 82% 29.96 in 10.0 mi ENE 6.9 mph - N/A   Clear
7:55 AM 51.8 °F - 44.6 °F 76% 29.97 in 10.0 mi NE 6.9 mph - N/A   Clear
8:15 AM 51.8 °F - 46.4 °F 82% 29.97 in 10.0 mi ENE 10.4 mph - N/A   Clear
8:35 AM 53.6 °F - 46.4 °F 77% 29.98 in 10.0 mi East 9.2 mph - N/A   Clear
8:55 AM 55.4 °F - 48.2 °F 77% 29.98 in 10.0 mi ENE 9.2 mph - N/A   Clear
9:15 AM 55.4 °F - 48.2 °F 77% 29.97 in 10.0 mi ENE 10.4 mph - N/A   Clear
9:35 AM 57.2 °F - 50.0 °F 77% 29.97 in 10.0 mi ENE 9.2 mph - N/A   Clear
9:55 AM 59.0 °F - 50.0 °F 72% 29.98 in 10.0 mi ENE 10.4 mph - N/A   Clear
10:15 AM 60.8 °F - 50.0 °F 68% 29.98 in 10.0 mi ENE 8.1 mph - N/A   Clear
10:35 AM 60.8 °F - 50.0 °F 68% 29.98 in 10.0 mi East 8.1 mph - N/A   Clear
10:55 AM 62.6 °F - 50.0 °F 63% 29.97 in 10.0 mi ENE 4.6 mph - N/A   Clear
11:15 AM 62.6 °F - 50.0 °F 63% 29.96 in 10.0 mi ENE 6.9 mph - N/A   Clear
11:35 AM 64.4 °F - 50.0 °F 59% 29.95 in 10.0 mi East 9.2 mph - N/A   Clear
11:55 AM 64.4 °F - 50.0 °F 59% 29.93 in 10.0 mi NE 8.1 mph - N/A   Clear
12:15 PM 66.2 °F - 50.0 °F 56% 29.93 in 10.0 mi ENE 9.2 mph - N/A   Clear
12:35 PM 66.2 °F - 48.2 °F 52% 29.91 in 10.0 mi East 9.2 mph - N/A   Clear
12:55 PM 68.0 °F - 50.0 °F 52% 29.90 in 10.0 mi East 10.4 mph - N/A   Clear
1:15 PM 68.0 °F - 50.0 °F 52% 29.88 in 10.0 mi ENE 9.2 mph - N/A   Clear
1:35 PM 68.0 °F - 50.0 °F 52% 29.87 in 10.0 mi ENE 6.9 mph - N/A   Scattered Clouds
1:55 PM 69.8 °F - 50.0 °F 49% 29.86 in 10.0 mi ENE 8.1 mph - N/A   Scattered Clouds
2:15 PM 68.0 °F - 50.0 °F 52% 29.86 in 10.0 mi ENE 8.1 mph - N/A   Mostly Cloudy
2:35 PM 68.0 °F - 48.2 °F 49% 29.85 in 10.0 mi ENE 6.9 mph - N/A   Mostly Cloudy
2:55 PM 68.0 °F - 50.0 °F 52% 29.83 in 10.0 mi ENE 5.8 mph - N/A   Scattered Clouds
3:15 PM 68.0 °F - 50.0 °F 52% 29.83 in 10.0 mi ENE 10.4 mph - N/A   Mostly Cloudy
3:35 PM 68.0 °F - 50.0 °F 52% 29.81 in 10.0 mi ENE 8.1 mph - N/A   Scattered Clouds
3:55 PM 66.2 °F - 51.8 °F 60% 29.80 in 10.0 mi ENE 8.1 mph - N/A   Clear
4:15 PM 66.2 °F - 51.8 °F 60% 29.80 in 10.0 mi ENE 6.9 mph - N/A   Scattered Clouds
4:35 PM 64.4 °F - 51.8 °F 64% 29.80 in 10.0 mi East 9.2 mph - N/A   Scattered Clouds
4:55 PM 64.4 °F - 51.8 °F 64% 29.80 in 10.0 mi East 5.8 mph - N/A   Scattered Clouds
5:15 PM 64.4 °F - 51.8 °F 64% 29.78 in 10.0 mi NE 6.9 mph - N/A   Mostly Cloudy
5:35 PM 64.4 °F - 53.6 °F 68% 29.77 in 10.0 mi East 6.9 mph - N/A   Mostly Cloudy
5:55 PM 64.4 °F - 55.4 °F 73% 29.78 in 10.0 mi East 4.6 mph - N/A   Overcast
6:15 PM 62.6 °F - 55.4 °F 77% 29.78 in 10.0 mi Calm Calm - N/A Thunderstorm Overcast
6:35 PM 62.6 °F - 55.4 °F 77% 29.78 in 10.0 mi Calm Calm - N/A   Overcast
6:55 PM 62.6 °F - 53.6 °F 72% 29.77 in 10.0 mi ENE 4.6 mph - N/A   Overcast
7:15 PM 62.6 °F - 55.4 °F 77% 29.79 in 10.0 mi East 3.5 mph - N/A Rain Rain
7:35 PM 60.8 °F - 57.2 °F 88% 29.77 in 10.0 mi North 4.6 mph - 0.01 in Rain Rain
7:55 PM 60.8 °F - 57.2 °F 88% 29.78 in 10.0 mi ENE 4.6 mph - 0.02 in Rain Rain
8:15 PM 60.8 °F - 57.2 °F 88% 29.77 in 10.0 mi NE 6.9 mph - N/A   Overcast
8:35 PM 60.8 °F - 57.2 °F 88% 29.77 in 10.0 mi NNE 3.5 mph - N/A   Overcast
8:55 PM 60.8 °F - 57.2 °F 88% 29.76 in 10.0 mi NE 5.8 mph - N/A   Overcast
9:15 PM 60.8 °F - 59.0 °F 94% 29.76 in 10.0 mi ENE 6.9 mph - N/A   Overcast
9:35 PM 60.8 °F - 59.0 °F 94% 29.75 in 10.0 mi ENE 5.8 mph - N/A   Overcast
9:55 PM 60.8 °F - 59.0 °F 94% 29.74 in 10.0 mi North - - N/A   Overcast
10:15 PM 60.8 °F - 59.0 °F 94% 29.73 in 10.0 mi ENE 8.1 mph - N/A   Scattered Clouds
10:35 PM 60.8 °F - 60.8 °F 100% 29.72 in 7.0 mi ENE 9.2 mph - N/A   Mostly Cloudy
10:55 PM 62.6 °F - 60.8 °F 94% 29.72 in 7.0 mi ENE 6.9 mph - N/A   Overcast
11:15 PM 62.6 °F - 60.8 °F 94% 29.72 in 10.0 mi ENE 6.9 mph - N/A   Overcast
11:35 PM 62.6 °F - 60.8 °F 94% 29.72 in 10.0 mi NE 3.5 mph - N/A   Overcast